Terug naar catalogus

COSMOS 2587

ActiefNavigatiePO
NORAD 63290·PAYLOAD·🇷🇺 Russia

Gelanceerd Mar 16, 2025 vanaf Plesetsk Cosmodrome

Loading…

Volgende Passages (komende 24 uur)

TLE

VersSource: Space-Track

Epoch: Sep 14, 2026, 04:42 UTC

1 63290U 25054C   26257.19606127  .00000006  00000-0 -30315-4 0  9993
2 63290  82.5015  23.3219 0015241 174.8202 185.3038 12.42895752 67916

Volg COSMOS 2587 in realtime met AllMySat

Download on the App Store